Wetbulb
58.18 57.56 54.53 51.66 47.92 45.73 44.16 42.91 39.01 38.79 36.99 36.63 36.50 36.54 36.03 34.90 34.93 34.95 35.27 35.38 35.12 36.11 34.53 34.96 33.84 33.38 32.48 32.24 32.27 31.68 30.39 30.12 27.18 29.70 31.21 31.09 30.02 29.26 29.26 29.21 29.55 28.19 27.97
55.17 51.09 46.54 44.12 42.23 41.47 39.61 38.90 37.85 37.64 37.30 37.77 37.48 37.18 36.03 35.40 35.15 34.34 34.45 34.38 33.56 33.24 33.54 32.54 31.71 31.97 30.37 30.82 30.24 29.54 29.42 29.94 27.60 25.57 28.66 29.09 28.64 28.94 28.37 27.30 26.58 26.10 26.32
42.69 41.78 41.06 40.45 39.31 38.91 37.91 38.04 38.21 37.76 38.34 37.76 37.09 36.46 35.87 35.56 35.03 34.81 34.73 34.13 34.00 33.41 32.83 31.24 30.66 30.58 29.30 29.58 29.16 28.57 28.94 28.91 28.02 26.15 25.37 27.89 28.08 27.83 26.38 26.51 25.98 25.74 25.77
40.25 39.67 39.02 38.82 38.53 38.29 38.51 38.74 38.58 38.48 37.71 36.90 36.78 36.70 36.06 35.05 34.19 33.86 33.08 32.79 32.51 32.53 32.05 31.59 30.90 30.50 30.12 29.92 28.89 28.22 27.73 27.16 26.93 25.72 25.22 25.45 26.11 27.27 26.40 23.78 22.17 24.19 23.62
39.39 38.54 37.96 38.37 38.63 38.36 37.97 37.71 37.02 36.87 37.17 37.22 36.03 34.26 34.25 33.65 33.25 32.45 31.87 31.57 31.20 30.66 30.75 30.87 30.85 30.81 31.54 31.65 28.85 28.36 27.63 26.32 25.72 24.91 24.28 24.69 24.55 24.66 23.59 23.92 22.02 21.28 21.59
38.96 38.30 38.52 37.70 36.74 35.59 35.20 34.74 34.43 33.94 33.48 32.64 32.10 31.79 31.59 32.46 34.13 33.70 32.65 30.42 29.96 29.20 29.24 30.23 30.69 30.01 30.24 31.77 31.89 31.92 29.99 26.79 25.66 24.86 24.67 23.98 24.59 25.14 25.15 22.78 20.82 18.28 15.63
37.33 36.44 35.40 34.88 33.99 33.15 32.69 31.78 30.81 30.79 30.73 30.41 30.43 30.54 30.18 30.66 33.33 33.62 34.08 31.56 30.67 30.34 30.21 29.71 29.16 28.91 29.34 28.87 30.48 31.70 31.50 32.29 31.89 27.54 24.66 25.03 24.87 25.62 24.81 22.09 20.16 18.22 16.95
35.30 34.49 34.09 33.46 31.89 31.24 30.58 29.97 29.53 29.44 29.30 29.16 29.05 29.17 28.91 28.54 31.91 32.74 33.30 31.93 31.33 31.34 31.58 31.26 30.21 29.67 29.65 28.54 27.71 27.22 27.46 27.96 28.94 29.58 28.90 28.41 28.01 27.41 25.79 23.16 20.43 18.25 16.47
32.71 32.65 32.43 32.00 30.53 30.16 29.77 29.30 29.06 29.25 28.91 28.67 28.46 28.17 27.80 28.10 31.51 31.96 31.45 30.09 29.59 29.63 30.27 30.74 30.65 30.08 31.65 32.54 29.06 27.57 27.22 27.27 30.25 32.11 32.46 32.65 32.50 32.48 30.71 21.36 16.77 14.75 12.94
29.08 29.83 30.96 31.72 31.36 30.69 31.11 30.80 29.78 29.28 28.86 27.89 28.23 28.79 29.16 28.49 30.68 31.29 30.96 29.37 28.26 28.45 29.22 29.45 30.03 30.56 32.03 32.36 29.52 28.08 26.26 27.12 27.83 27.30 26.48 27.68 29.51 28.78 31.48 23.50 19.65 14.83 13.31
27.45 27.03 26.90 27.39 27.69 28.29 29.14 27.86 27.36 27.61 28.16 28.24 27.84 28.62 28.15 28.12 27.83 30.01 30.76 28.93 28.41 28.20 28.47 28.72 29.63 31.85 32.18 32.35 32.40 29.66 28.87 29.96 29.66 28.68 27.83 26.32 24.05 23.79 23.75 23.72 18.44 16.28 12.72
23.70 23.36 23.26 24.01 24.57 25.96 26.58 26.97 27.34 27.33 27.43 27.12 26.71 27.49 28.66 27.94 29.02 29.94 30.44 30.10 29.92 27.18 26.83 27.79 28.44 30.70 31.25 31.66 31.09 31.76 32.20 31.24 29.31 28.32 27.83 26.00 22.96 20.00 17.51 16.83 16.39 15.20 14.96
21.21 21.01 21.29 22.25 22.87 23.77 23.75 24.28 25.69 25.62 25.60 25.31 25.84 25.97 26.22 27.60 28.50 29.49 28.34 28.88 28.96 27.70 28.55 29.23 30.84 31.19 31.13 30.33 30.36 30.42 28.88 28.25 28.43 27.17 26.35 26.67 25.30 22.42 18.76 16.11 14.77 13.42 11.96
18.92 19.30 20.44 19.71 20.82 21.32 22.46 22.61 23.88 21.53 21.77 22.66 22.46 22.29 22.54 22.26 22.89 23.16 23.38 23.88 25.11 25.24 25.95 25.67 26.85 27.88 29.30 29.08 27.87 28.13 27.33 27.29 26.47 26.20 26.27 27.24 25.13 20.11 15.47 13.73 10.41 8.35 6.74
17.91 17.02 18.27 18.70 18.45 18.54 19.96 20.83 19.61 20.85 21.99 19.84 18.63 18.93 18.05 17.91 19.40 22.53 22.77 21.86 22.24 22.70 21.51 21.75 22.02 22.27 22.36 23.09 23.95 25.25 26.41 27.16 25.79 26.07 26.15 25.38 16.98 13.18 12.44 11.49 10.35 8.97 5.37
15.33 15.82 14.60 15.88 16.19 16.18 16.04 16.45 21.32 21.30 22.11 21.69 21.20 19.83 18.46 19.52 21.38 22.28 22.04 21.75 21.72 21.76 16.22 15.35 15.41 15.95 15.80 16.20 16.52 17.11 18.78 20.09 21.78 24.36 24.88 23.70 14.65 11.83 10.89 9.61 8.74 6.57 4.66
10.40 13.12 13.79 13.03 13.32 13.20 13.41 12.92 11.77 15.37 18.64 18.99 18.85 19.08 18.72 18.92 20.14 19.99 19.68 19.42 17.91 16.67 10.98 10.79 10.71 11.02 11.39 12.41 12.81 13.59 14.02 16.02 18.12 18.37 22.20 19.96 15.55 12.63 10.46 7.55 6.16 5.55 3.62
10.87 10.06 12.03 11.73 11.29 11.44 11.45 11.11 10.79 9.34 8.56 9.89 14.43 15.89 15.47 16.74 17.76 17.28 17.06 13.76 8.19 9.41 8.39 7.71 7.54 8.36 8.55 8.80 9.46 10.55 11.49 11.16 11.01 13.93 17.93 15.91 13.75 11.23 8.46 7.29 5.85 4.14 3.78
8.46 7.95 10.20 10.37 9.62 9.55 10.00 9.80 9.57 8.81 8.14 7.98 8.55 10.82 9.85 14.70 14.76 13.67 13.36 6.18 4.66 4.73 5.43 5.28 5.98 6.19 6.51 6.99 7.56 7.98 8.53 8.50 9.11 11.53 15.67 11.92 10.89 9.82 7.73 7.53 6.00 3.58 1.77
9.11 6.80 6.64 9.09 8.60 7.99 7.84 7.39 6.96 6.73 6.37 5.87 5.67 5.78 6.74 8.58 4.22 4.26 4.90 4.46 3.88 3.78 3.84 3.66 4.41 5.00 4.83 5.12 5.32 5.63 5.34 5.49 7.20 8.85 12.58 11.48 9.68 8.73 6.51 4.93 2.73 -2.01 -1.65
7.88 7.67 5.17 7.40 7.02 6.48 5.54 5.60 5.50 5.10 4.41 3.90 4.12 5.52 11.80 4.12 2.70 2.63 2.49 2.64 2.57 2.54 2.61 2.88 3.00 3.51 4.11 4.19 3.85 3.48 3.07 4.02 5.28 7.48 10.89 9.36 6.90 5.32 4.69 3.46 1.37 -0.30 -2.79
7.03 6.96 6.74 5.54 5.72 4.45 4.20 4.96 4.36 3.82 3.11 2.37 2.84 3.79 8.76 2.62 2.10 1.44 1.47 1.35 1.78 2.34 2.55 2.16 1.94 2.66 3.03 3.28 3.21 2.41 1.87 2.40 4.44 7.92 7.82 5.18 4.40 3.46 2.00 0.09 -1.26 -3.30 -5.79
5.95 5.17 4.80 4.44 4.06 1.70 3.66 3.10 2.88 2.33 1.62 1.35 1.37 1.23 1.03 0.55 0.12 0.02 -0.16 0.23 0.61 0.85 1.58 1.43 1.34 0.85 2.16 3.80 3.71 3.71 2.60 3.09 5.34 7.62 4.85 2.98 1.70 0.55 -0.51 -2.23 -3.52 -5.40 -6.49
4.16 3.61 3.02 2.85 2.41 2.14 1.93 1.19 1.38 0.44 0.22 0.16 0.04 -0.46 -1.01 -1.32 -1.54 -1.53 -1.01 -0.34 -0.31 -0.07 0.45 0.28 0.04 1.04 2.59 3.14 3.60 4.01 4.52 5.37 5.44 4.92 3.92 1.72 -0.01 -0.56 -2.53 -3.76 -4.37 -6.37 -7.90
2.52 1.79 1.37 1.00 0.67 0.42 0.09 0.04 -0.08 -0.62 -0.99 -1.34 -1.93 -2.32 -2.36 -2.40 -2.49 -2.25 -1.69 -1.16 -1.32 -1.28 -1.60 -0.78 0.38 1.50 2.65 2.63 3.15 3.84 3.26 3.43 3.50 3.87 2.81 1.06 -1.17 -2.67 -3.50 -5.11 -6.20 -7.60 -8.71
1.06 0.57 0.42 0.17 -0.53 -0.65 -1.20 -1.77 -1.85 -2.00 -2.91 -2.85 -3.31 -3.49 -3.96 -4.18 -3.72 -3.19 -2.88 -2.60 -2.61 -3.18 -2.38 -1.28 -0.29 1.09 2.46 3.14 3.85 7.20 6.12 5.43 2.69 2.52 0.77 -1.00 -3.25 -4.32 -5.69 -6.89 -7.85 -7.95 -10.57
MSLP
1006.78 1007.51 1008.46 1009.37 1010.60 1011.54 1012.65 1013.25 1014.32 1015.11 1016.37 1017.65 1018.18 1018.49 1019.09 1020.44 1020.94 1020.98 1020.98 1021.14 1021.17 1021.53 1021.89 1022.03 1022.09 1022.17 1022.10 1022.37 1022.55 1022.44 1022.46 1022.52 1022.17 1021.35 1021.02 1021.17 1021.42 1021.54 1021.48 1021.44 1021.34 1021.26 1021.17
1007.12 1008.10 1009.14 1009.93 1010.97 1011.87 1012.98 1013.81 1014.77 1015.66 1016.65 1017.77 1018.50 1019.20 1019.46 1020.32 1020.68 1020.78 1021.00 1021.25 1021.58 1021.57 1021.70 1021.93 1022.01 1021.77 1021.89 1022.31 1022.46 1022.46 1022.36 1022.22 1022.26 1021.71 1021.15 1020.87 1020.76 1020.70 1020.79 1021.09 1021.06 1020.84 1020.87
1008.16 1008.98 1010.02 1010.85 1011.66 1012.42 1012.97 1014.06 1015.00 1015.76 1017.85 1017.91 1018.67 1018.69 1019.51 1019.74 1020.49 1020.80 1020.86 1021.31 1021.57 1021.60 1021.58 1021.64 1021.77 1021.67 1021.76 1022.00 1022.03 1021.99 1021.84 1021.77 1021.93 1021.60 1021.00 1020.67 1020.44 1020.39 1020.44 1020.39 1020.46 1020.27 1019.98
1009.23 1010.20 1011.31 1011.79 1012.36 1012.76 1014.02 1014.78 1015.94 1015.67 1017.82 1018.22 1018.49 1018.85 1019.53 1019.92 1020.19 1020.50 1020.80 1021.02 1021.11 1021.12 1021.14 1021.36 1021.26 1021.30 1021.35 1021.42 1021.42 1021.32 1021.35 1021.45 1021.42 1021.17 1020.64 1020.14 1020.07 1019.74 1019.89 1019.86 1019.91 1019.73 1019.52
1010.90 1011.61 1012.25 1013.19 1013.19 1014.02 1014.43 1015.92 1016.65 1016.55 1017.96 1018.39 1018.61 1019.18 1019.51 1019.82 1020.08 1020.23 1020.50 1020.73 1020.69 1020.77 1020.75 1020.79 1020.60 1020.67 1020.73 1020.79 1020.66 1020.59 1020.76 1020.74 1020.48 1020.27 1019.89 1019.50 1019.22 1019.03 1018.60 1018.70 1018.40 1018.66 1018.80
1012.13 1012.37 1013.05 1013.62 1014.79 1015.00 1016.09 1016.72 1016.85 1017.66 1018.48 1019.04 1019.24 1019.63 1020.20 1020.10 1020.19 1020.24 1020.31 1020.46 1020.54 1020.43 1020.38 1020.25 1020.01 1020.08 1020.02 1020.09 1019.92 1019.98 1019.93 1019.69 1019.55 1019.34 1018.79 1018.62 1018.08 1018.12 1017.87 1017.95 1018.11 1018.66 1018.62
1014.18 1014.26 1014.40 1014.97 1015.87 1016.53 1016.93 1017.65 1018.35 1018.75 1019.26 1019.53 1019.74 1019.97 1020.00 1020.03 1020.13 1020.14 1020.38 1020.37 1020.31 1020.24 1020.07 1019.89 1019.64 1019.41 1019.22 1019.06 1018.98 1018.91 1018.72 1018.60 1018.43 1018.19 1017.87 1017.35 1016.92 1016.59 1016.95 1017.07 1017.30 1017.55 1017.53
1015.54 1015.82 1016.12 1016.61 1016.98 1017.36 1018.14 1018.42 1018.75 1019.18 1019.33 1019.68 1019.88 1019.93 1020.11 1020.01 1019.89 1020.00 1020.20 1020.29 1020.24 1019.82 1019.53 1019.30 1018.99 1018.68 1018.56 1018.40 1018.32 1018.12 1017.63 1017.31 1016.98 1017.02 1016.56 1016.06 1015.86 1016.06 1016.44 1016.35 1017.12 1017.10 1017.27
1017.42 1017.47 1017.36 1017.82 1017.79 1018.49 1018.82 1018.97 1019.32 1019.55 1019.55 1019.84 1020.03 1020.03 1019.95 1020.05 1020.07 1020.11 1020.18 1020.11 1019.81 1019.35 1019.19 1018.87 1018.48 1018.20 1017.89 1018.06 1017.82 1017.33 1016.66 1015.85 1015.50 1015.31 1015.16 1014.92 1014.77 1014.80 1015.39 1016.41 1016.88 1017.18 1016.56
1019.24 1019.13 1019.10 1018.99 1019.05 1019.46 1019.59 1019.79 1020.15 1020.09 1020.06 1020.22 1020.29 1020.32 1020.32 1020.42 1020.51 1020.34 1020.22 1020.12 1019.68 1019.14 1018.67 1018.15 1018.06 1017.42 1016.99 1016.94 1017.12 1016.66 1015.90 1014.94 1015.20 1014.63 1014.28 1013.93 1013.67 1013.57 1013.98 1015.10 1015.58 1015.91 1016.22
1020.86 1020.81 1020.93 1020.91 1020.87 1020.97 1020.70 1020.69 1020.72 1020.82 1020.89 1020.78 1020.66 1020.58 1020.60 1020.75 1020.47 1020.40 1020.41 1020.21 1019.83 1019.21 1018.55 1018.04 1017.57 1016.93 1016.55 1016.22 1015.92 1015.71 1015.09 1014.75 1014.15 1013.93 1013.54 1013.18 1012.68 1012.85 1013.29 1014.08 1014.27 1014.64 1015.21
1022.44 1022.29 1022.29 1022.33 1021.99 1021.78 1021.62 1021.59 1021.38 1021.09 1021.00 1021.17 1021.07 1020.96 1021.04 1021.24 1021.04 1020.78 1020.60 1020.22 1019.87 1019.47 1018.80 1018.09 1017.43 1016.59 1015.88 1015.37 1014.98 1014.71 1014.16 1013.66 1013.28 1012.58 1012.34 1011.91 1011.60 1011.91 1012.70 1013.21 1013.53 1014.03 1014.45
1023.63 1023.65 1023.69 1023.46 1023.22 1022.96 1022.67 1022.40 1022.19 1022.34 1022.38 1022.29 1022.11 1021.90 1021.72 1021.61 1021.28 1021.27 1021.01 1020.38 1019.76 1018.98 1018.28 1017.55 1016.75 1016.23 1015.68 1014.95 1014.43 1013.86 1013.41 1013.07 1012.27 1011.39 1010.96 1010.57 1010.42 1010.94 1012.02 1012.80 1013.46 1013.98 1014.46
1024.76 1024.80 1024.53 1024.45 1024.45 1024.41 1024.36 1024.09 1023.59 1023.57 1023.49 1023.41 1023.05 1022.95 1022.93 1022.50 1022.21 1021.84 1021.35 1020.84 1020.19 1019.45 1018.65 1017.78 1016.84 1015.88 1015.09 1014.25 1013.75 1012.72 1012.17 1011.92 1011.43 1010.75 1010.23 1009.71 1009.78 1010.60 1011.42 1012.19 1012.94 1013.54 1014.12
1026.59 1026.54 1026.29 1026.01 1025.74 1025.50 1025.43 1025.14 1025.03 1025.12 1024.70 1024.68 1024.98 1024.85 1024.55 1024.06 1023.81 1023.36 1022.57 1021.90 1021.27 1020.21 1018.96 1017.73 1016.61 1015.74 1014.84 1014.10 1013.34 1012.36 1011.85 1011.17 1010.39 1009.92 1009.54 1009.25 1009.68 1010.43 1011.07 1011.73 1012.16 1012.71 1013.14
1028.00 1027.79 1027.74 1027.42 1027.27 1027.02 1026.88 1026.81 1026.47 1025.93 1025.56 1025.95 1026.30 1026.28 1026.12 1025.90 1024.97 1023.74 1022.63 1022.22 1021.19 1019.90 1018.88 1018.43 1017.53 1016.87 1016.30 1015.48 1014.50 1013.46 1012.90 1011.90 1010.99 1009.99 1008.60 1008.70 1009.35 1010.00 1010.70 1011.33 1011.77 1012.12 1012.53
1029.09 1029.01 1029.00 1028.85 1028.63 1028.32 1028.11 1027.92 1027.70 1027.41 1027.34 1027.42 1027.23 1026.11 1025.44 1025.10 1024.41 1024.26 1023.27 1022.24 1021.73 1021.07 1020.67 1019.84 1018.99 1018.30 1017.47 1016.57 1015.53 1014.43 1013.23 1012.51 1011.55 1010.57 1008.99 1008.26 1008.82 1009.61 1010.36 1010.90 1011.36 1011.83 1012.41
1030.85 1030.77 1030.51 1030.50 1030.40 1029.98 1030.09 1029.41 1028.97 1028.25 1027.29 1027.02 1027.08 1026.95 1026.50 1026.00 1025.17 1024.64 1023.99 1023.45 1022.69 1022.08 1021.84 1021.13 1020.10 1019.10 1018.21 1017.32 1016.36 1015.24 1014.08 1013.30 1012.42 1010.98 1009.56 1008.71 1008.57 1009.31 1010.00 1010.38 1010.86 1011.50 1012.17
1031.94 1031.57 1031.12 1030.61 1029.95 1030.31 1030.25 1030.32 1030.58 1029.95 1030.10 1028.94 1028.25 1027.76 1027.43 1026.40 1025.85 1025.38 1024.78 1024.32 1023.67 1023.03 1022.31 1021.42 1020.49 1019.63 1018.77 1017.87 1016.85 1015.80 1014.72 1013.59 1012.55 1011.09 1009.42 1009.14 1009.12 1009.38 1009.77 1010.23 1010.84 1011.63 1012.20
1033.58 1033.65 1033.13 1032.97 1032.64 1032.06 1031.92 1031.53 1031.07 1031.05 1030.52 1029.61 1029.07 1028.76 1027.94 1026.99 1026.53 1025.92 1025.51 1024.99 1024.26 1023.42 1022.52 1021.59 1020.74 1020.03 1019.15 1018.11 1016.97 1015.91 1014.79 1013.77 1012.46 1011.28 1009.72 1009.41 1009.55 1009.68 1009.97 1010.52 1011.18 1012.05 1012.55
1034.03 1033.86 1033.65 1033.24 1033.21 1032.65 1032.50 1032.03 1031.88 1031.22 1030.52 1029.89 1029.41 1028.95 1027.93 1027.48 1026.90 1026.46 1025.78 1024.97 1024.23 1023.44 1022.64 1021.87 1020.99 1020.07 1019.13 1018.08 1017.05 1015.98 1014.96 1013.68 1012.56 1011.27 1009.91 1009.89 1010.10 1010.37 1010.68 1011.15 1011.73 1012.31 1012.93
1034.65 1034.33 1034.11 1033.95 1033.60 1033.33 1032.91 1032.39 1031.89 1031.34 1030.82 1030.27 1029.55 1028.92 1028.07 1027.59 1026.94 1026.20 1025.50 1024.89 1024.30 1023.71 1023.04 1022.12 1021.09 1020.12 1019.16 1018.06 1016.92 1015.81 1014.73 1013.54 1012.39 1011.08 1010.32 1010.57 1010.77 1011.05 1011.48 1012.07 1012.64 1013.17 1013.67
1035.03 1034.80 1034.45 1034.11 1033.78 1033.40 1032.87 1032.51 1032.05 1031.56 1030.92 1030.23 1029.46 1028.72 1028.12 1027.62 1027.15 1026.59 1025.87 1025.10 1024.40 1023.68 1022.92 1022.16 1021.20 1020.04 1019.00 1017.80 1016.86 1015.71 1014.56 1013.45 1012.37 1011.39 1011.16 1011.42 1011.59 1011.84 1012.22 1012.80 1013.38 1013.89 1014.34
1035.51 1035.20 1034.81 1034.34 1033.91 1033.45 1032.93 1032.35 1031.85 1031.40 1031.01 1030.46 1029.80 1029.13 1028.49 1027.89 1027.31 1026.71 1026.03 1025.33 1024.69 1023.90 1023.02 1022.11 1021.15 1019.95 1018.67 1017.54 1016.54 1015.51 1014.45 1013.47 1012.82 1012.17 1011.97 1012.20 1012.46 1012.72 1013.15 1013.68 1014.13 1014.64 1015.27
1035.68 1035.46 1035.07 1034.58 1034.15 1033.73 1033.21 1032.68 1032.12 1031.64 1031.07 1030.49 1029.89 1029.37 1028.78 1028.18 1027.49 1026.82 1026.18 1025.46 1024.65 1023.70 1022.72 1021.72 1020.63 1019.52 1018.34 1017.36 1016.42 1015.55 1014.88 1014.17 1013.58 1013.26 1013.10 1013.18 1013.41 1013.76 1014.09 1014.56 1015.08 1015.62 1016.07
1035.92 1035.56 1035.05 1034.62 1034.23 1033.75 1033.23 1032.70 1032.13 1031.54 1030.94 1030.36 1029.90 1029.36 1028.82 1028.16 1027.49 1026.65 1025.89 1025.13 1024.30 1023.51 1022.48 1021.46 1020.43 1019.30 1018.22 1017.25 1016.43 1015.45 1014.99 1014.66 1014.44 1014.18 1014.18 1014.25 1014.37 1014.83 1015.20 1015.54 1016.00 1016.46 1016.85
Wind_Speed
15 13 11 10 10 11 9 10 11 13 11 8 10 8 9 5 3 3 3 3 4 3 2 4 4 3 3 3 3 2 3 4 5 3 3 3 4 6 7 6 7 6 7
10 10 10 12 11 11 11 11 11 11 9 10 7 6 6 7 6 4 4 3 4 5 5 4 5 3 4 4 3 5 5 5 4 9 6 5 6 6 7 7 6 5 7
10 11 10 10 11 11 13 14 13 12 6 9 5 8 5 7 6 5 2 4 4 4 4 5 5 4 6 5 6 6 5 5 6 7 8 5 5 4 6 8 7 7 6
13 12 11 10 12 13 11 11 11 11 7 5 5 5 5 6 4 4 5 5 5 5 5 6 7 8 9 8 7 8 6 7 7 8 9 9 8 7 6 7 7 7 7
13 14 12 9 12 10 12 8 7 9 5 4 5 4 3 4 4 5 5 4 5 6 6 8 8 9 12 11 6 8 8 8 8 9 10 8 9 8 9 7 8 5 8
11 14 12 12 9 11 7 6 7 6 5 3 2 1 3 2 3 6 5 4 5 6 9 8 8 10 12 19 21 22 16 10 12 11 10 11 14 10 7 6 6 5 6
11 12 12 9 9 8 7 7 6 5 4 3 3 4 3 2 5 8 9 5 6 9 9 8 8 7 9 11 16 22 24 27 27 16 15 15 15 11 8 9 9 8 9
12 11 9 8 8 7 5 5 5 3 2 2 3 3 4 3 8 10 10 8 9 11 10 11 11 11 11 11 11 13 14 14 18 15 19 19 16 11 9 8 8 6 4
12 10 9 7 7 6 6 6 4 3 3 3 3 4 5 4 8 10 9 6 9 11 10 11 11 13 16 19 14 15 15 16 17 25 27 28 28 26 16 4 6 6 6
13 12 11 10 9 8 6 6 4 4 4 3 4 4 5 6 9 11 10 5 9 8 9 11 15 16 20 22 14 14 16 16 12 11 11 17 22 17 23 13 9 9 6
11 10 11 10 9 8 7 5 5 5 4 3 3 3 2 5 8 14 14 7 7 8 9 9 8 18 21 22 22 14 17 19 18 14 12 11 11 11 7 9 9 8 7
10 11 11 11 9 8 9 7 7 8 8 8 8 7 5 5 10 13 16 15 16 9 10 9 11 22 25 26 22 27 29 24 12 11 11 11 10 9 9 9 9 7 6
11 12 11 10 11 10 11 11 9 10 8 8 7 8 8 8 8 20 23 26 22 15 12 17 27 26 28 23 25 27 24 12 12 12 12 13 10 9 7 6 5 5 4
12 12 11 12 11 11 8 8 8 10 9 8 10 10 10 11 11 12 13 13 19 16 20 15 21 25 26 20 15 14 10 10 11 12 12 10 3 4 6 6 6 6 5
10 11 10 9 11 10 10 9 9 10 12 10 10 10 10 11 13 20 19 13 13 17 20 12 11 11 12 12 12 13 12 10 11 11 11 9 4 5 6 6 6 6 6
10 9 9 8 8 8 8 8 15 17 17 19 18 13 7 15 21 24 27 28 28 29 12 11 12 12 13 13 13 13 12 15 14 15 10 7 6 7 6 6 4 6 6
11 10 8 9 8 8 8 8 8 8 10 15 19 22 26 26 28 29 29 29 25 22 10 11 12 12 12 13 13 13 14 12 16 13 14 6 5 5 7 7 6 5 3
8 9 7 6 6 5 5 6 7 9 12 13 16 20 23 25 27 27 27 19 11 11 9 11 11 12 12 13 13 14 14 14 14 14 14 4 5 6 6 7 7 5 4
8 7 8 8 10 11 10 9 7 7 7 8 10 14 15 24 25 23 23 9 11 10 11 11 12 12 13 13 13 13 14 13 15 15 11 2 3 5 6 5 4 6 6
7 9 7 5 5 6 6 6 7 6 6 7 7 9 10 12 10 10 9 10 10 10 11 12 11 12 13 14 14 14 14 14 13 14 9 3 3 3 4 5 6 6 4
6 6 6 5 5 5 5 5 5 6 7 7 8 9 23 10 9 9 9 9 10 10 12 12 12 12 12 13 13 13 14 14 13 14 5 1 1 1 4 5 6 5 5
5 5 5 4 5 5 5 5 6 7 8 8 9 9 21 8 9 10 10 10 10 10 10 12 12 12 12 13 13 14 13 13 12 12 2 2 1 4 5 6 5 5 5
5 6 5 5 5 6 5 6 6 7 8 9 9 9 10 9 9 10 11 11 11 11 12 12 13 13 13 12 13 12 12 12 11 6 2 2 4 5 5 5 5 6 4
5 5 5 5 5 6 6 8 8 9 9 9 9 9 10 10 11 12 11 11 11 11 11 12 12 16 14 13 12 11 10 9 6 4 4 4 5 6 6 6 6 7 5
5 5 5 6 6 7 8 8 8 8 8 9 9 9 10 11 11 11 11 11 11 11 14 13 11 16 16 19 15 14 11 10 6 5 4 6 8 8 7 7 6 6 5
5 5 5 5 5 6 7 8 8 8 9 9 9 9 10 10 10 11 11 11 11 13 15 12 15 18 18 13 13 16 7 6 6 9 6 6 6 6 6 7 8 5 5
Wind_Direction
181 172 162 153 148 141 136 133 129 124 124 130 130 134 122 133 130 124 162 185 194 178 192 230 216 194 210 214 227 241 238 227 257 284 208 221 243 249 260 245 248 269 277
156 144 138 130 126 125 118 115 118 122 122 125 121 106 127 157 180 178 198 192 226 203 211 220 233 204 230 237 227 236 233 237 246 267 266 257 229 233 250 270 271 261 275
100 108 110 116 118 121 121 117 125 123 122 118 136 141 155 165 197 208 195 205 225 234 223 220 234 219 231 228 223 235 235 238 245 253 267 269 268 258 258 257 259 266 265
86 90 88 95 103 109 100 112 114 113 130 131 137 143 176 181 183 188 200 207 216 229 226 227 229 231 237 233 231 232 235 242 244 252 259 261 259 256 249 261 268 263 265
84 81 85 88 100 98 101 102 115 95 118 136 151 166 167 186 195 197 205 224 238 245 236 235 234 236 242 241 234 235 231 236 241 248 256 260 255 251 238 235 250 270 264
95 92 91 77 77 74 82 92 78 79 86 97 89 125 218 223 230 240 235 233 239 249 257 252 240 238 248 248 247 245 240 241 244 247 256 255 256 257 252 242 250 268 280
70 73 71 77 74 74 70 72 78 95 124 135 178 207 241 245 259 259 256 258 262 255 256 261 260 249 242 246 250 250 248 248 246 251 257 251 262 249 249 241 230 234 249
54 56 54 62 74 70 80 92 96 90 84 25 341 328 299 297 300 279 265 255 256 259 258 254 257 265 260 254 254 254 250 244 245 245 246 254 254 258 247 235 233 263 289
41 42 48 48 65 72 67 62 53 52 45 32 353 326 308 291 284 288 287 270 262 265 271 272 269 267 268 269 270 267 266 259 256 253 253 257 259 258 247 194 219 227 262
28 30 30 35 46 48 46 44 28 23 8 349 342 336 326 312 315 313 311 287 283 281 280 275 264 265 270 274 272 274 272 269 276 269 259 259 262 259 254 210 209 223 229
32 41 40 36 41 29 41 33 27 19 3 3 347 328 313 325 341 349 341 320 302 301 294 292 287 288 291 290 285 276 273 285 281 272 261 247 235 237 216 211 196 203 213
39 43 40 34 32 26 32 24 32 23 26 20 6 9 18 11 356 357 355 345 329 315 300 301 299 303 301 297 294 284 281 280 270 264 262 251 231 209 202 200 198 200 219
39 40 36 32 34 27 29 24 30 26 23 15 10 2 358 358 359 4 350 344 337 329 314 302 302 296 289 289 284 283 287 279 274 265 262 262 240 220 201 182 178 179 211
42 32 30 33 27 29 30 27 32 25 18 13 15 7 2 357 358 352 349 341 337 331 324 311 303 302 297 290 285 279 268 266 268 273 270 270 222 169 177 166 178 177 202
36 32 26 28 28 25 26 30 30 26 30 25 17 5 358 357 351 341 337 337 332 327 327 318 318 320 321 320 315 316 309 288 264 263 265 255 179 168 183 174 183 183 201
38 31 25 25 22 25 22 15 24 27 33 31 20 16 5 347 344 347 350 343 342 344 341 334 332 331 325 324 320 316 313 311 312 306 260 246 188 192 191 182 182 197 200
38 28 27 28 22 21 17 14 6 0 12 16 12 11 9 359 354 350 349 350 345 348 340 332 328 325 322 319 319 314 309 311 309 317 283 231 188 193 190 190 192 190 174
37 28 32 30 22 24 15 15 10 5 359 352 0 1 3 351 351 349 347 347 338 344 331 324 318 319 316 314 313 311 316 314 307 298 296 261 182 186 193 198 188 175 159
36 26 18 19 20 14 12 9 0 360 344 336 335 342 349 342 346 346 348 345 335 330 327 324 322 319 316 313 312 310 308 308 305 302 286 252 208 194 201 193 151 133 135
34 32 23 18 10 12 6 0 355 341 321 330 332 336 324 341 336 334 335 327 322 320 321 318 316 313 312 312 313 311 309 306 305 304 289 254 223 205 188 154 132 137 156
17 14 2 12 1 3 347 347 330 330 331 329 325 325 335 347 325 325 324 328 329 326 324 321 318 314 311 311 309 309 306 302 303 298 291 301 79 176 119 118 121 123 114
11 4 3 2 355 348 336 337 334 334 328 322 317 320 334 331 330 331 333 332 329 325 321 319 316 314 316 312 313 309 305 304 304 302 12 75 133 109 107 108 112 104 103
6 2 360 354 352 329 339 335 328 324 323 324 327 329 336 335 331 327 326 326 327 324 322 318 316 314 312 313 312 308 308 308 312 321 57 111 107 107 108 111 108 103 97
0 355 346 341 342 336 339 333 332 332 328 326 327 330 329 329 326 325 324 321 317 315 314 316 312 310 315 317 317 316 311 309 328 3 65 103 108 103 99 97 91 92 87
352 342 340 344 340 335 329 326 321 320 321 323 327 325 323 319 316 316 314 313 312 315 319 315 317 318 321 322 321 321 328 349 14 37 64 86 90 92 89 91 91 81 76
334 328 325 325 325 323 320 316 316 316 318 319 316 313 311 310 308 310 313 314 319 320 317 320 316 320 324 325 325 324 342 13 42 62 78 86 91 86 88 90 85 83 68